Location: Castillon
(43.0896°N, 0.2156°E)
Time: 03:14:03
(UTC+00:00)

Cosmos 1980 Rocket - Pass Details

Date: 19 October 2021
Orbit: 828 x 851 km, 71.0° (Epoch: 07 December)

Event Time Altitude Azimuth Distance (km) Brightness Sun altitude
Rises 19:56:46 0° 262° (W) 3,393 6.3 -31.0°
Reaches altitude 10° 20:00:35 10° 288° (WNW) 2,467 5.5 -31.7°
Maximum altitude 20:03:21 14° 317° (NW) 2,222 5.0 -32.2°
Drops below altitude 10° 20:06:08 10° 347° (NNW) 2,479 4.9 -32.7°
Sets 20:10:01 0° 13° (NNE) 3,423 5.4 -33.3°
